Location: Harmony
(28.2000°N, 81.1500°W)
Time: 12:53:01
(UTC-04:00)

Daily predictions for brighter satellites

Satellite Brightness Start Highest point End
(mag) Time Altitude Azimuth Time Altitude Azimuth Time Altitude Azimuth
ATLAS CENTAUR R/B 3.6 19:24:23 10° WSW 19:27:57 53° NW 19:37:54 10° NNE
Cosmos 2056 Rocket 3.6 19:22:34 10° N 19:28:00 74° ENE 19:33:21 10° SSE
FUSE 4.3 19:23:46 10° W 19:29:05 62° S 19:34:22 10° E
CZ-4 R/B 4.0 19:26:17 10° SSW 19:29:34 26° W 19:32:50 10° NW
Cosmos 1544 4.4 19:27:47 10° SE 19:30:36 21° E 19:33:26 10° NE
Cosmos 1484 Rocket 2.9 19:28:17 10° SSE 19:31:58 50° ENE 19:35:44 10° N
USA 215 3.5 19:28:06 10° NE 19:34:28 53° SE 19:40:46 10° SSW
SAR-Lupe-4 4.5 19:31:30 10° SE 19:34:33 27° ENE 19:37:37 10° NNE
Cosmos 1758 3.5 19:36:37 10° SSE 19:40:32 49° E 19:44:30 10° NNE
Cosmos 1464 Rocket 4.0 19:34:51 10° S 19:41:06 79° E 19:47:17 10° N
Cosmos 2034 Rocket 4.1 19:35:15 10° SSE 19:41:18 55° E 19:47:27 10° NNE
OAO 3 Rocket 4.1 19:37:56 10° WNW 19:42:18 36° N 19:46:44 10° ENE
SL-16 R/B 4.3 19:40:06 10° SW 19:45:01 30° WNW 19:49:59 10° N
SeaSat 1 4.3 19:53:09 11° ESE 19:53:09 11° ESE 19:53:38 10° ESE
Cosmos 1378 3.2 19:48:48 10° N 19:52:32 80° W 19:56:15 10° S
Cosmos 1408 Rocket 3.6 19:49:03 10° N 19:53:16 53° E 19:57:27 10° SSE
Helios 1A 4.2 19:54:10 10° ESE 19:57:27 23° ENE 20:00:45 10° NNE
IDEFIX/ARIANE 42P 4.4 19:53:35 10° SSW 19:58:20 35° W 20:03:07 10° NNW
Timation 1 Rocket 4.4 20:00:13 10° NNW 20:06:12 84° WSW 20:12:09 10° SSE
Atlas Centaur 2 3.7 19:59:44 10° W 20:07:58 53° SSW 20:15:38 11° SE
AVUM R/B 3.5 20:07:36 10° S 20:10:20 34° ESE 20:10:57 30° E
Meteor 1-28 Rocket 4.0 20:07:38 10° N 20:11:16 53° WNW 20:14:52 10° SSW
Meteosat 1 Rocket2 4.0 20:03:44 10° WSW 20:12:04 78° S 20:15:44 22° E
Intelsat 5-2 Rocket 4.1 20:02:38 10° W 20:12:38 55° S 20:15:02 23° ESE
Meteor 1-29 3.0 20:09:34 10° NNE 20:12:58 52° E 20:16:21 10° S
GPS 2-04 Rocket1 4.0 20:10:04 10° WNW 20:13:03 26° N 20:15:05 16° NE
NOAA 12 4.0 20:07:49 10° SSE 20:13:03 77° ENE 20:18:19 10° N
SAR-Lupe-1 4.1 20:11:02 10° S 20:14:34 80° W 20:18:07 10° NNW
SEDSat Delta rocket 4.1 20:08:43 10° WNW 20:15:16 73° N 20:19:43 23° E
Resurs 1-3 4.1 20:15:22 19° SE 20:17:59 36° ENE 20:22:00 10° N
Cosmos 1805 4.5 20:14:51 10° SSW 20:18:36 45° W 20:22:23 10° N
GPS 2-12 Rocket1 4.3 20:15:57 10° WSW 20:19:48 28° S 20:21:41 21° SE
ALOS 3.1 20:20:14 27° E 20:20:56 28° ENE 20:24:54 10° NNE
ASTEX 1 3.7 20:16:49 10° NNE 20:21:26 40° E 20:25:59 10° SSE
Cosmos 2251 Rocket 4.1 20:18:05 10° SSE 20:22:44 33° E 20:27:24 10° NE
Cosmos 1743 Rocket 3.6 20:19:47 10° N 20:24:07 54° E 20:28:22 10° SSE
Cosmos 1452 Rocket 3.6 20:18:57 10° NNW 20:24:12 79° WSW 20:29:26 10° S
Cosmos 1943 3.1 20:19:44 10° SSW 20:25:22 81° ESE 20:31:00 10° NNE
Resurs 01 Rocket 1.6 20:21:40 10° SSE 20:26:03 63° ENE 20:30:26 10° N
CENTAUR R/B 2.6 20:22:03 10° SW 20:27:52 73° WNW 20:34:21 10° NNE
Cosmos 2369 Rocket 3.1 20:26:16 10° N 20:31:00 27° ENE 20:31:02 27° ENE
Cosmos 1953 4.4 20:28:48 10° SW 20:32:18 29° W 20:35:47 10° NNW
Helios 1B rocket 2.9 20:29:04 10° N 20:33:08 61° WNW 20:37:10 10° SSW
Cosmos 1733 3.0 20:33:04 10° S 20:36:56 79° E 20:40:48 10° N
Delta 168 3.5 20:33:21 10° W 20:37:35 62° S 20:39:37 38° ESE
Cosmos 1420 Rocket 3.9 20:38:04 10° NNW 20:43:24 82° ENE 20:46:51 22° SSE
Cosmos 1470 3.1 20:40:16 10° SSW 20:44:06 62° W 20:47:57 10° N
Palapa B4 Rocket 4.3 20:42:55 10° SW 20:45:50 24° S 20:45:50 24° S
BREEZE-M TANK 2.7 20:42:42 10° WNW 20:48:06 55° SW 20:48:39 47° S
Spot 2 Rocket 3.7 20:44:54 10° S 20:49:54 69° WSW 20:54:55 10° NNW
Cosmos 1674 2.7 20:47:55 10° N 20:51:28 74° NNW 20:51:28 74° NNW
Nadezhda 4 Rocket 4.1 20:45:40 10° N 20:51:53 77° W 20:58:02 10° S
ASC 2 Rocket 4.5 20:49:28 10° WSW 20:53:03 24° SSW 20:53:31 23° S
BREEZE-M DEB (TANK) 3.7 20:40:52 10° NW 20:56:27 78° SW 20:58:15 43° SSE
ASTRO E2 3.1 20:53:28 10° W 20:57:04 59° SW 20:57:04 59° SW
Cosmos 1092 Rocket 3.8 20:55:44 10° N 21:01:55 90° W 21:07:18 14° S
Cosmos 2142 Rocket 4.5 20:57:06 10° S 21:03:27 87° W 21:09:52 10° N
OAO 1 4.4 21:01:14 10° WSW 21:06:46 89° NNW 21:07:01 82° ENE
Meteor 1-16 Rocket 3.9 21:02:28 10° S 21:07:46 90° W 21:13:05 10° N
Cosmos 1634 Rocket 4.2 21:04:15 10° SSW 21:10:29 70° W 21:16:41 10° N
Cosmos 2026 Rocket 4.4 21:06:55 10° N 21:11:21 45° NNE 21:11:21 45° NNE
OAO 3 Rocket 4.3 21:21:28 10° WNW 21:24:38 41° NW 21:24:38 41° NW
SeaSat 1 4.2 21:33:03 24° SW 21:33:03 24° SW 21:34:58 10° SW
FENGYUN 3A 4.5 21:32:29 43° SW 21:33:22 47° W 21:38:32 10° NNW
Cosmos 1943 Rocket 4.5 22:01:44 10° NNW 22:02:44 16° NNW 22:02:44 16° NNW
Cosmos 2369 Rocket 4.2 22:10:01 10° NW 22:12:52 24° WNW 22:12:52 24° WNW
